Location: Chevoux
(46.3801°N, 4.9476°E)
Time: 12:24:31
(UTC+00:00)

Cosmos 2266 Rocket - Pass Details

Date: 28 January 2021
Orbit: 934 x 1008 km, 82.9° (Epoch: 07 March)

Event Time Altitude Azimuth Distance (km) Brightness Sun altitude
Rises 19:05:06 0° 186° (S) 3,676 7.1 -25.2°
Reaches altitude 10° 19:07:37 10° 186° (S) 2,721 6.4 -25.6°
Maximum altitude 19:13:52 89° 96° (E) 972 3.8 -26.7°
Drops below altitude 10° 19:20:02 10° 9° (N) 2,689 6.2 -27.8°
Sets 19:22:31 0° 9° (N) 3,629 6.9 -28.2°
